Weather History for Lovelock, NV

Change the Weather History Date:

Wednesday, December 19, 2012

  Actual Average Record
Temperature  
Mean Temperature 18 °F -  
Max Temperature 32 °F 40 °F 61 °F (1955)
Min Temperature 3 °F 14 °F -10 °F (1978)
Degree Days  
Heating Degree Days 48    
Moisture  
Dew Point 7 °F    
Average Humidity 68    
Maximum Humidity 88    
Minimum Humidity 42    
Precipitation  
Precipitation 0.00 in - - ()
Sea Level Pressure  
Sea Level Pressure 30.23 in    
Wind  
Wind Speed 3 mph (ENE)    
Max Wind Speed 7 mph    
Max Gust Speed -    
Visibility 10 miles    
Events      
Averages and records for this station are not official NWS values.
T = Trace of Precipitation, MM = Missing Value Source: NWS Daily Summary

Daily Weather History Graph

Daily Weather History Graph

Search for Another Location

Airport:

Trip Planner

Search our weather history database for the weather conditions in past years. The results will help you decide how hot, cold, wet, or windy it might be!

Date:

Astronomy

Dec. 19, 2012 Rise Set
Actual Time 7:12 AM PST 4:31 PM PST
Civil Twilight 6:41 AM PST 5:02 PM PST
Nautical Twilight 6:07 AM PST 5:36 PM PST
Astronomical Twilight 5:34 AM PST 6:09 PM PST
Moon 11:23 AM PST (12/19) No Moon Set
Length of Visible Light 10h 20m
Length of Day
9h 19m
Waxing Crescent, 46% of the Moon is Illuminated
Dec 19
Waxing Crescent
Dec 19
First Quarter
Dec 28
Full
Jan 4
Last Quarter
Jan 11
New

Hourly Weather History & Observations

Time (PST) Temp. Windchill Dew Point Humidity Pressure Visibility Wind Dir Wind Speed Gust Speed Precip Events Conditions
12:53 AM 12.0 °F - 6.1 °F 77% 30.16 in 10.0 mi Calm Calm - N/A   Clear
1:53 AM 10.0 °F - 5.0 °F 80% 30.19 in 10.0 mi North - - N/A   Clear
2:53 AM 8.1 °F -0.5 °F 3.0 °F 80% 30.22 in 10.0 mi NW 4.6 mph - N/A   Clear
3:53 AM 8.1 °F - 3.9 °F 83% 30.24 in 10.0 mi Calm Calm - N/A   Clear
4:53 AM 3.9 °F -6.9 °F 1.0 °F 88% 30.29 in 10.0 mi ESE 5.8 mph - N/A   Clear
5:53 AM 5.0 °F -5.6 °F 1.0 °F 84% 30.30 in 10.0 mi NNE 5.8 mph - N/A   Clear
6:53 AM 8.1 °F - 3.9 °F 83% 30.32 in 10.0 mi Calm Calm - N/A   Clear
7:53 AM 6.1 °F -0.9 °F -0.0 °F 76% 30.36 in 10.0 mi East 3.5 mph - N/A   Clear
8:53 AM 14.0 °F - 10.0 °F 84% 30.35 in 10.0 mi Calm Calm - N/A   Clear
10:53 AM - - - N/A% 30.25 in - North - - N/A   Unknown
11:53 AM - - - N/A% 30.24 in - SSW 5.8 mph - N/A   Clear
12:53 PM 30.9 °F 26.2 °F 10.9 °F 43% 30.23 in 10.0 mi Variable 4.6 mph - N/A   Clear
1:53 PM 32.0 °F 25.6 °F 12.0 °F 44% 30.21 in 10.0 mi SSE 6.9 mph - N/A   Clear
2:53 PM 32.0 °F 25.6 °F 10.9 °F 42% 30.21 in 10.0 mi Variable 6.9 mph - N/A   Clear
3:53 PM 30.9 °F 27.5 °F 10.9 °F 43% 30.21 in 10.0 mi SSE 3.5 mph - N/A   Clear
4:53 PM 28.9 °F 25.2 °F 10.9 °F 47% 30.20 in 10.0 mi ENE 3.5 mph - N/A   Clear
5:53 PM 24.1 °F 19.7 °F 10.9 °F 57% 30.20 in 10.0 mi North 3.5 mph - N/A   Clear
6:53 PM 21.9 °F 17.2 °F 10.9 °F 63% 30.20 in 10.0 mi NW 3.5 mph - N/A   Clear
7:53 PM 19.9 °F - 10.0 °F 65% 30.20 in 10.0 mi Calm Calm - N/A   Clear
8:53 PM 17.1 °F 10.0 °F 8.1 °F 68% 30.20 in 10.0 mi South 4.6 mph - N/A   Clear
9:53 PM 18.0 °F 11.1 °F 10.0 °F 71% 30.20 in 10.0 mi North 4.6 mph - N/A   Clear
10:53 PM 17.1 °F - 9.0 °F 71% 30.19 in 10.0 mi Calm Calm - N/A   Clear
11:53 PM 14.0 °F - 6.1 °F 71% 30.18 in 10.0 mi Calm Calm - N/A   Clear